Location: ???? ?????
(30.0052°N, 31.2891°E)
Time: 19:24:09
(UTC+00:00)

ACS3 Solar Sail - Pass Details

Date: 19 September 2024
Orbit: 960 x 1036 km, 97.4° (Epoch: 09 October)

Event Time Altitude Azimuth Distance (km) Brightness Sun altitude
Exits shadow 16:42:34 12° 78° (ENE) 2,694 3.5 -11.1°
Drops below altitude 10° 16:46:34 10° 40° (NE) 2,841 3.9 -12.0°
Enters shadow 18:02:53 -37° 169° (SSE) 9,161 6.8 -28.0°
